When you browse on this site, cookies collect data to enhance your experience and personalize the content and advertising you see.
Visit our Privacy Policy to learn more. By continuing to use the site, you agree to this use of cookies and data.
  • en Suisse
  • Liste des pays
  • À 7 jours
  • Température de l'eau
  • Carte satellitaire
  • Carte météo
  • Widgets météo
  • user-avatar
    Se connecter

    Météo par heure à Plesna

    Ce jour, 23 Juillet, Mardi

    Heure Température Précipitation Vent Pression Humidité
    00:00 +16°C° 0 mm 3 m/s 739 mmHg 84%
    01:00 +16°C° 0 mm 2 m/s 738 mmHg 85%
    02:00 +16°C° 0 mm 2 m/s 738 mmHg 89%
    03:00 +16°C° 0.3 mm 2 m/s 738 mmHg 90%
    04:00 +16°C° 0.3 mm 2 m/s 738 mmHg 92%
    05:00 +16°C° 0.3 mm 2 m/s 738 mmHg 93%
    06:00 +17°C° 0.2 mm 2 m/s 738 mmHg 90%
    07:00 +18°C° 0.2 mm 2 m/s 738 mmHg 86%
    08:00 +19°C° 0.2 mm 2 m/s 738 mmHg 82%
    09:00 +20°C° 0.3 mm 3 m/s 738 mmHg 75%
    10:00 +21°C° 0.3 mm 3 m/s 738 mmHg 69%
    11:00 +22°C° 0.3 mm 4 m/s 738 mmHg 62%
    12:00 +22°C° 0 mm 4 m/s 738 mmHg 61%
    13:00 +22°C° 0 mm 5 m/s 737 mmHg 59%
    14:00 +23°C° 0 mm 5 m/s 737 mmHg 57%
    15:00 +22°C° 0 mm 5 m/s 737 mmHg 59%
    16:00 +22°C° 0 mm 4 m/s 737 mmHg 61%
    17:00 +22°C° 0 mm 4 m/s 737 mmHg 63%
    18:00 +21°C° 0 mm 4 m/s 737 mmHg 69%
    19:00 +19°C° 0 mm 3 m/s 737 mmHg 75%
    20:00 +18°C° 0 mm 3 m/s 736 mmHg 82%
    21:00 +17°C° 0 mm 3 m/s 737 mmHg 84%
    22:00 +16°C° 0 mm 3 m/s 737 mmHg 87%
    23:00 +14°C° 0 mm 3 m/s 737 mmHg 89%

    Demain, 24 Juillet, Mercredi

    Heure Température Précipitation Vent Pression Humidité
    00:00 +14°C° 0 mm 3 m/s 737 mmHg 89%
    01:00 +14°C° 0 mm 3 m/s 737 mmHg 89%
    02:00 +14°C° 0 mm 4 m/s 737 mmHg 89%
    03:00 +14°C° 0 mm 4 m/s 737 mmHg 92%
    04:00 +14°C° 0 mm 4 m/s 736 mmHg 94%
    05:00 +13°C° 0 mm 4 m/s 736 mmHg 96%
    06:00 +15°C° 0 mm 4 m/s 736 mmHg 92%
    07:00 +17°C° 0 mm 4 m/s 737 mmHg 88%
    08:00 +17°C° 0 mm 5 m/s 737 mmHg 84%
    09:00 +19°C° 0.2 mm 5 m/s 737 mmHg 81%
    10:00 +21°C° 0.2 mm 5 m/s 737 mmHg 78%
    11:00 +22°C° 0.2 mm 5 m/s 737 mmHg 75%
    12:00 +22°C° 0.7 mm 5 m/s 737 mmHg 74%
    13:00 +22°C° 0.7 mm 5 m/s 736 mmHg 73%
    14:00 +23°C° 0.7 mm 5 m/s 736 mmHg 72%
    15:00 +23°C° 0.2 mm 5 m/s 736 mmHg 71%
    16:00 +23°C° 0.2 mm 4 m/s 736 mmHg 70%
    17:00 +23°C° 0.2 mm 4 m/s 737 mmHg 68%
    18:00 +22°C° 0.5 mm 4 m/s 736 mmHg 75%
    19:00 +20°C° 0.5 mm 3 m/s 736 mmHg 81%
    20:00 +19°C° 0.5 mm 3 m/s 736 mmHg 87%
    21:00 +18°C° 0.1 mm 2 m/s 737 mmHg 89%
    22:00 +17°C° 0.1 mm 2 m/s 737 mmHg 90%
    23:00 +17°C° 0.1 mm 2 m/s 737 mmHg 92%

    Après-demain, 25 Juillet, Jeudi

    Heure Température Précipitation Vent Pression Humidité
    00:00 +16°C° 0 mm 2 m/s 737 mmHg 93%
    01:00 +16°C° 0 mm 2 m/s 737 mmHg 93%
    02:00 +15°C° 0 mm 2 m/s 737 mmHg 93%
    03:00 +15°C° 0 mm 2 m/s 737 mmHg 94%
    04:00 +15°C° 0 mm 2 m/s 738 mmHg 95%
    05:00 +15°C° 0 mm 2 m/s 738 mmHg 95%
    06:00 +16°C° 0 mm 2 m/s 738 mmHg 92%
    07:00 +18°C° 0 mm 2 m/s 738 mmHg 88%
    08:00 +19°C° 0 mm 3 m/s 738 mmHg 85%
    09:00 +21°C° 0 mm 3 m/s 738 mmHg 76%
    10:00 +22°C° 0 mm 3 m/s 738 mmHg 67%
    11:00 +25°C° 0 mm 2 m/s 739 mmHg 58%
    12:00 +25°C° 0 mm 2 m/s 738 mmHg 56%
    13:00 +26°C° 0 mm 2 m/s 738 mmHg 53%
    14:00 +26°C° 0 mm 2 m/s 738 mmHg 51%
    15:00 +26°C° 0 mm 2 m/s 737 mmHg 54%
    16:00 +26°C° 0 mm 3 m/s 737 mmHg 57%
    17:00 +25°C° 0 mm 3 m/s 737 mmHg 60%
    18:00 +24°C° 0.3 mm 2 m/s 737 mmHg 68%
    19:00 +21°C° 0.3 mm 2 m/s 736 mmHg 76%
    20:00 +19°C° 0.3 mm 2 m/s 736 mmHg 84%
    21:00 +18°C° 0 mm 2 m/s 736 mmHg 86%
    22:00 +18°C° 0 mm 2 m/s 736 mmHg 88%
    23:00 +17°C° 0 mm 2 m/s 736 mmHg 90%

    26 Juillet, Vendredi

    Heure Température Précipitation Vent Pression Humidité
    00:00 +17°C° 0.5 mm 2 m/s 735 mmHg 92%
    01:00 +17°C° 0.5 mm 2 m/s 735 mmHg 93%
    02:00 +16°C° 0.5 mm 2 m/s 735 mmHg 95%
    03:00 +16°C° 0.1 mm 2 m/s 735 mmHg 96%
    04:00 +15°C° 0.1 mm 2 m/s 735 mmHg 96%
    05:00 +15°C° 0.1 mm 2 m/s 735 mmHg 96%
    06:00 +16°C° 0 mm 2 m/s 734 mmHg 93%
    07:00 +18°C° 0 mm 2 m/s 734 mmHg 90%
    08:00 +19°C° 0 mm 2 m/s 734 mmHg 87%
    09:00 +20°C° 0 mm 3 m/s 734 mmHg 81%
    10:00 +21°C° 0 mm 3 m/s 734 mmHg 74%
    11:00 +22°C° 0 mm 3 m/s 734 mmHg 68%
    12:00 +22°C° 0.2 mm 3 m/s 734 mmHg 67%
    13:00 +23°C° 0.2 mm 2 m/s 734 mmHg 67%
    14:00 +23°C° 0.2 mm 2 m/s 734 mmHg 67%
    15:00 +23°C° 0.3 mm 2 m/s 733 mmHg 69%
    16:00 +23°C° 0.3 mm 2 m/s 733 mmHg 70%
    17:00 +23°C° 0.3 mm 2 m/s 733 mmHg 72%
    18:00 +21°C° 0.4 mm 2 m/s 733 mmHg 77%
    19:00 +19°C° 0.4 mm 2 m/s 733 mmHg 82%
    20:00 +19°C° 0.4 mm 1 m/s 733 mmHg 88%
    21:00 +18°C° 0 mm 1 m/s 733 mmHg 90%
    22:00 +18°C° 0 mm 1 m/s 733 mmHg 92%
    23:00 +16°C° 0 mm 2 m/s 733 mmHg 94%

    27 Juillet, Samedi

    Heure Température Précipitation Vent Pression Humidité
    00:00 +16°C° 0 mm 1 m/s 732 mmHg 95%
    01:00 +15°C° 0 mm 1 m/s 732 mmHg 96%
    02:00 +15°C° 0 mm 1 m/s 732 mmHg 96%
    03:00 +15°C° 0 mm 1 m/s 732 mmHg 97%
    04:00 +15°C° 0 mm 1 m/s 732 mmHg 97%
    05:00 +14°C° 0 mm 1 m/s 732 mmHg 97%
    06:00 +16°C° 0 mm 2 m/s 732 mmHg 95%
    07:00 +17°C° 0 mm 2 m/s 732 mmHg 93%
    08:00 +18°C° 0 mm 3 m/s 732 mmHg 91%
    09:00 +18°C° 0 mm 3 m/s 732 mmHg 89%
    10:00 +19°C° 0 mm 3 m/s 732 mmHg 87%
    11:00 +19°C° 0 mm 3 m/s 732 mmHg 85%
    12:00 +20°C° 0.2 mm 3 m/s 732 mmHg 84%
    13:00 +20°C° 0.2 mm 3 m/s 732 mmHg 83%
    14:00 +20°C° 0.2 mm 3 m/s 731 mmHg 82%
    15:00 +20°C° 0.3 mm 3 m/s 731 mmHg 81%
    16:00 +20°C° 0.3 mm 3 m/s 731 mmHg 81%
    17:00 +20°C° 0.3 mm 3 m/s 731 mmHg 80%
    18:00 +19°C° 0.2 mm 2 m/s 731 mmHg 84%
    19:00 +18°C° 0.2 mm 2 m/s 731 mmHg 88%
    20:00 +18°C° 0.2 mm 1 m/s 730 mmHg 93%
    21:00 +18°C° 0 mm 1 m/s 731 mmHg 94%
    22:00 +16°C° 0 mm 2 m/s 731 mmHg 95%
    23:00 +16°C° 0 mm 2 m/s 731 mmHg 96%

    28 Juillet, Dimanche

    Heure Température Précipitation Vent Pression Humidité
    00:00 +15°C° 0 mm 2 m/s 731 mmHg 96%
    01:00 +15°C° 0 mm 2 m/s 731 mmHg 96%
    02:00 +15°C° 0 mm 2 m/s 731 mmHg 96%
    03:00 +15°C° 0 mm 2 m/s 731 mmHg 97%
    04:00 +14°C° 0 mm 2 m/s 731 mmHg 97%
    05:00 +14°C° 0 mm 2 m/s 731 mmHg 97%
    06:00 +16°C° 0 mm 2 m/s 731 mmHg 94%
    07:00 +18°C° 0 mm 2 m/s 731 mmHg 90%
    08:00 +19°C° 0 mm 3 m/s 731 mmHg 87%
    09:00 +21°C° 0 mm 3 m/s 731 mmHg 80%
    10:00 +22°C° 0 mm 3 m/s 732 mmHg 74%
    11:00 +25°C° 0 mm 3 m/s 732 mmHg 67%
    12:00 +25°C° 0.3 mm 3 m/s 731 mmHg 67%
    13:00 +26°C° 0.3 mm 3 m/s 731 mmHg 67%
    14:00 +26°C° 0.3 mm 3 m/s 731 mmHg 66%
    15:00 +26°C° 0.1 mm 3 m/s 731 mmHg 67%
    16:00 +26°C° 0.1 mm 3 m/s 731 mmHg 67%
    17:00 +26°C° 0.1 mm 3 m/s 731 mmHg 67%
    18:00 +25°C° 0.4 mm 3 m/s 731 mmHg 74%
    19:00 +23°C° 0.4 mm 2 m/s 731 mmHg 81%
    20:00 +20°C° 0.4 mm 2 m/s 731 mmHg 88%
    21:00 +20°C° 0 mm 2 m/s 731 mmHg 90%
    22:00 +19°C° 0 mm 2 m/s 731 mmHg 92%
    23:00 +18°C° 0 mm 2 m/s 731 mmHg 93%
    Voir plus